Wind_Speed
30 39 37 39 32 33 31 31 30 29 27 24 23 22 20 18 18 19 20 18 18 12 21 15 18 16 9 8 5 3 0 4 2 4 4 5 4 5 4 13 6 8 4 5 5 7 11 4 3 5 17 39 43 44
20 30 41 40 46 37 32 31 31 31 30 29 27 26 26 22 21 21 23 23 22 24 13 15 20 27 29 23 17 10 11 7 4 3 3 3 3 3 4 10 6 5 10 10 12 10 19 21 23 32 42 41 47 39
9 18 21 27 33 47 38 39 34 31 31 31 30 28 28 27 25 26 25 27 23 24 27 25 33 35 31 32 29 20 13 22 16 27 11 4 10 3 7 7 10 6 17 11 14 15 30 32 36 42 47 39 40 41
9 9 9 19 23 30 38 35 43 37 33 32 31 29 29 29 28 27 27 30 26 11 7 16 21 28 26 24 26 33 32 28 25 23 16 5 8 13 5 8 8 13 9 8 18 26 40 33 36 38 42 42 41 37
9 9 9 9 9 18 27 26 34 39 37 35 33 30 30 31 27 28 26 29 28 26 5 6 15 17 21 26 28 27 26 28 28 13 8 6 8 7 12 11 11 10 8 7 18 36 33 41 43 42 47 43 41 34
5 7 6 6 7 9 13 22 26 24 30 30 32 35 35 34 32 23 22 33 32 30 12 3 9 18 26 26 30 35 31 26 29 14 11 10 25 12 4 7 16 21 23 31 33 36 43 47 49 43 38 40 39 32
3 2 5 6 3 7 7 10 17 22 27 30 25 27 32 33 33 28 9 6 15 27 6 7 6 8 22 24 17 20 20 21 23 19 11 17 20 10 3 17 44 35 38 38 35 36 37 37 35 38 39 34 29 25
8 5 5 2 5 11 8 10 11 11 11 12 12 12 12 15 21 21 12 9 7 11 4 2 3 4 10 6 6 12 6 9 10 10 8 10 16 11 7 26 39 38 38 35 32 28 27 33 35 28 26 28 29 25
14 11 7 5 6 5 8 8 7 8 6 7 10 11 9 8 6 9 12 15 14 8 4 5 2 1 5 4 4 3 7 2 8 6 8 10 7 8 18 32 33 37 34 36 31 29 26 19 24 26 27 28 24 18
15 14 13 10 8 7 6 8 9 9 9 9 8 5 3 4 4 3 1 1 3 5 7 4 4 1 4 3 1 3 7 4 4 5 6 4 14 34 39 41 41 38 29 20 15 15 17 23 24 26 21 15 11 9
14 14 14 11 9 8 7 8 8 7 8 6 5 4 6 4 6 3 3 6 5 4 4 4 7 7 9 6 4 8 3 3 4 3 4 3 5 15 18 17 15 16 10 8 12 16 16 18 18 13 12 12 12 7
15 14 12 12 12 11 11 10 9 9 6 6 6 5 6 4 3 2 3 3 4 3 3 3 3 6 6 9 8 6 4 4 7 3 2 3 4 3 4 3 4 6 9 13 16 19 19 15 7 11 5 1 2 4
15 15 15 14 12 12 12 11 10 10 9 8 4 4 3 2 4 5 5 3 3 3 1 1 1 3 3 2 6 2 4 1 3 2 3 3 8 5 5 6 7 10 13 18 21 19 16 7 9 9 8 5 5 7
14 14 13 14 13 12 11 11 12 14 6 3 5 4 4 5 5 4 2 2 2 3 6 5 2 3 4 2 2 5 3 2 4 4 5 1 5 11 11 11 13 13 16 20 22 17 11 11 11 8 7 5 8 7
13 13 13 13 13 12 11 11 13 15 5 3 4 4 6 3 2 2 3 2 2 3 3 3 4 3 3 4 4 4 4 5 4 4 1 7 10 14 16 19 18 20 20 21 18 12 11 11 11 7 5 8 9 10
14 14 13 13 13 13 12 12 11 10 3 4 5 4 4 2 5 4 5 4 4 4 1 2 3 3 6 4 6 6 4 6 7 3 11 13 20 21 23 28 28 23 22 22 20 22 15 12 12 8 4 12 8 8
14 10 14 14 13 12 11 14 7 6 5 4 5 8 8 4 5 5 5 5 4 4 2 3 5 11 1 4 5 5 8 10 16 18 20 23 26 29 34 35 33 27 25 26 25 21 18 11 12 6 10 9 8 8
12 11 9 13 16 16 14 9 5 5 7 9 6 9 10 10 9 9 13 12 9 7 5 5 5 5 5 8 12 10 17 22 25 27 26 27 29 34 34 32 28 29 29 29 26 18 14 12 11 10 12 9 8 6
12 10 9 18 21 16 9 9 7 5 10 7 8 10 12 11 17 18 17 17 15 11 5 5 6 7 10 15 15 19 25 27 25 31 33 32 31 33 33 32 33 31 28 25 18 16 16 11 13 14 11 9 8 7
12 13 15 17 17 8 5 5 7 5 5 6 8 10 8 8 12 14 15 15 15 8 9 6 9 21 25 32 34 33 31 30 29 30 35 32 26 26 28 30 25 25 18 13 12 16 14 15 17 13 11 11 9 8
16 17 18 18 17 13 4 6 7 5 5 6 5 8 6 8 12 13 14 13 13 12 14 24 31 36 37 38 39 36 36 35 32 31 33 36 30 30 33 31 30 17 13 12 13 14 16 15 14 12 12 12 11 10
18 18 21 21 15 10 10 11 5 5 5 4 4 6 7 9 11 11 14 10 14 27 32 35 35 35 36 36 36 35 35 37 39 35 36 35 32 27 25 19 14 13 13 13 14 15 14 15 15 13 13 13 10 8
16 15 15 10 9 8 3 14 9 8 4 5 5 4 5 7 7 6 6 10 17 29 28 29 34 35 36 39 40 41 42 39 37 37 33 29 25 22 16 12 12 11 12 16 16 15 15 14 13 14 13 10 9 8
18 9 7 7 10 4 8 8 8 6 7 4 4 5 7 7 6 6 7 22 34 30 25 26 24 26 28 27 28 30 29 21 25 26 23 20 21 17 14 13 13 15 14 14 15 15 15 14 13 13 13 11 10 8
7 9 7 6 8 8 7 5 5 5 6 6 5 7 4 4 4 6 12 27 29 28 24 19 11 14 17 21 24 21 22 22 18 19 15 15 14 15 14 15 14 13 13 14 15 16 15 14 13 12 10 9 7 7
7 11 10 12 9 8 9 6 8 9 6 6 8 5 2 4 5 7 5 14 18 19 14 12 16 19 18 19 24 24 25 19 12 15 15 11 12 14 13 13 11 11 12 14 13 12 13 13 12 10 8 6 7 8
7 9 10 11 8 7 5 2 4 4 7 9 4 6 5 6 8 6 13 18 16 14 12 13 17 19 22 24 22 22 20 13 12 11 11 10 11 12 13 11 11 11 12 14 13 12 10 10 9 8 8 8 9 11
12 10 12 15 8 10 6 5 6 7 6 9 6 7 6 7 6 10 13 16 19 20 18 18 21 20 20 20 19 19 16 12 11 10 10 10 12 14 14 13 13 12 11 13 13 12 12 11 10 10 11 12 14 16
14 13 9 7 9 7 13 9 11 17 19 13 7 9 8 18 24 23 27 23 21 19 20 21 20 20 20 20 16 14 13 14 12 14 16 13 15 17 17 16 16 13 14 18 15 13 12 13 13 13 14 15 17 16
14 19 14 12 9 11 20 20 15 19 22 26 27 26 29 31 32 30 25 22 20 19 19 21 22 20 18 15 14 14 14 13 14 18 14 16 18 18 17 15 11 12 14 17 17 17 17 16 16 16 15 14 12 11
9 16 7 10 8 15 19 19 21 24 19 18 21 21 27 19 21 21 20 19 18 16 18 18 15 12 10 9 9 10 10 8 7 11 14 13 11 11 11 8 8 9 11 12 13 15 16 17 15 12 10 10 9 9
10 12 8 5 5 12 12 7 7 9 11 9 9 10 8 6 6 10 11 11 11 10 11 9 6 5 5 4 4 3 4 3 2 2 4 3 5 8 8 8 7 6 5 6 7 6 7 9 9 8 7 6 7 7
7 8 8 4 4 5 8 7 7 5 6 5 7 7 7 6 4 5 6 6 7 6 5 4 4 3 2 1 2 3 3 2 3 3 4 5 5 6 6 6 7 7 7 7 8 9 9 8 8 8 7 7 8 9
Wind_Direction
229 222 219 227 232 231 231 233 234 238 239 242 246 249 248 250 251 252 255 247 236 236 247 240 236 234 232 223 223 173 105 224 119 199 220 233 229 236 253 251 255 247 230 209 231 240 282 317 172 244 312 315 310 311
221 221 224 232 229 232 230 236 236 237 237 238 241 248 248 250 250 251 253 254 249 240 244 243 248 251 239 247 257 232 229 255 219 232 237 271 262 249 242 269 220 257 212 251 236 249 285 292 286 298 295 297 304 308
222 228 230 231 226 230 232 237 235 239 241 240 241 244 249 250 250 250 250 255 250 244 254 236 248 264 249 241 246 243 231 239 241 243 254 230 245 216 253 256 255 259 252 254 271 250 273 282 291 287 293 297 304 305
238 229 226 235 232 231 235 238 234 236 239 241 242 242 251 254 253 253 255 248 246 243 256 247 244 246 253 255 242 242 246 255 251 254 241 211 243 211 239 249 236 256 245 250 271 281 287 280 290 301 303 306 309 315
248 263 261 256 237 236 234 234 234 231 234 237 241 245 249 251 250 254 254 260 251 235 252 245 252 241 245 259 248 243 243 251 249 237 222 242 239 241 252 264 256 204 228 242 268 283 287 293 303 306 308 311 312 310
243 237 258 266 270 270 249 232 229 234 231 234 241 245 249 254 249 230 248 239 240 253 263 280 243 231 238 237 254 244 253 246 238 244 251 241 242 228 265 265 254 245 267 272 277 287 293 296 301 308 312 312 310 310
232 233 227 230 189 241 257 225 218 223 223 233 236 235 240 248 230 214 209 220 210 223 231 290 273 208 208 233 236 245 245 241 240 244 235 254 260 236 241 273 280 280 285 288 289 293 294 300 307 310 311 311 311 305
192 180 174 176 243 226 207 178 172 170 165 173 186 200 206 204 215 215 198 181 196 199 205 248 263 244 201 197 206 220 217 223 234 244 249 245 267 220 252 264 275 286 292 297 301 303 300 303 305 309 313 315 313 309
202 199 193 179 159 128 178 190 186 195 193 197 215 227 231 234 236 238 250 232 229 236 224 214 221 289 180 194 221 243 219 235 249 228 228 244 239 232 256 272 281 285 291 301 304 304 307 306 308 312 315 314 308 304
191 188 184 189 188 175 160 146 138 128 122 109 137 128 106 139 54 19 262 197 251 220 227 249 206 216 206 152 292 250 222 225 247 231 237 226 248 256 265 271 276 285 297 298 298 310 316 313 315 316 319 323 320 307
183 188 181 195 215 212 198 181 172 156 141 129 125 135 146 173 163 174 224 197 205 235 227 231 221 245 247 234 232 222 223 224 245 226 228 237 263 254 277 281 287 295 300 313 311 304 302 299 303 309 320 319 309 316
200 204 207 203 200 189 184 180 173 170 164 152 130 130 177 182 183 254 219 195 206 237 199 214 184 206 219 216 225 215 235 204 239 99 221 245 249 349 334 317 297 313 323 327 319 305 299 298 298 315 324 336 336 326
190 192 195 189 180 179 176 173 170 163 148 137 167 149 140 163 207 221 206 201 208 172 157 45 41 289 276 280 262 269 253 290 345 235 237 265 0 331 324 298 292 300 313 323 316 296 290 253 296 288 284 283 294 296
193 187 184 184 181 182 180 173 167 164 151 171 149 176 205 197 225 209 255 32 56 80 93 53 322 259 240 232 245 274 229 225 234 228 233 80 347 344 312 289 286 293 307 320 311 293 254 255 291 278 272 285 299 305
172 172 169 175 178 180 179 180 178 175 169 159 176 213 220 221 238 196 170 169 13 26 307 280 257 251 245 255 223 265 239 238 241 272 258 338 335 328 318 310 294 295 311 320 309 264 253 265 270 255 254 308 294 309
169 168 171 174 176 178 176 170 166 177 203 187 224 225 196 234 222 217 207 219 244 217 244 228 252 253 237 229 213 226 257 253 269 234 308 324 321 319 318 315 300 290 305 308 294 285 250 251 241 228 284 281 294 308
172 178 180 177 179 176 165 173 158 190 199 222 235 229 236 270 257 243 236 213 196 166 224 192 228 224 296 230 229 224 248 275 295 302 308 316 315 313 312 309 298 283 293 302 292 265 261 226 228 223 266 267 290 301
184 185 175 177 174 167 176 175 182 211 234 231 233 227 223 228 239 242 256 256 216 199 216 230 259 235 242 247 255 265 283 292 291 290 298 305 307 305 308 299 288 283 288 300 290 258 202 208 210 243 256 264 279 285
176 171 172 179 176 165 168 189 190 238 227 232 240 237 235 248 261 268 266 268 252 234 232 225 235 240 245 256 269 278 287 288 285 295 295 298 302 300 306 306 297 287 297 288 257 222 187 193 221 247 246 254 252 271
175 177 178 180 182 177 180 197 196 226 222 223 228 235 235 245 266 276 271 259 227 213 225 230 247 256 259 265 272 276 282 288 289 289 289 295 297 295 297 303 286 306 280 245 223 193 180 206 230 235 241 238 243 268
196 192 192 199 201 207 218 196 199 218 220 225 235 227 256 262 263 260 261 259 227 234 247 245 252 260 264 268 273 277 279 281 276 278 284 290 294 292 302 299 296 265 225 206 188 187 209 225 236 234 235 235 249 267
211 205 202 207 214 202 226 211 217 198 202 236 198 222 253 252 254 248 260 234 245 246 244 255 261 266 270 272 275 277 278 280 281 281 283 283 282 288 296 296 253 216 192 176 194 220 234 233 233 235 232 244 257 254
220 224 213 187 187 212 204 190 184 215 223 208 185 219 227 226 230 239 236 242 251 254 259 265 269 273 271 275 279 281 284 279 278 278 278 273 275 279 266 220 198 184 210 242 240 226 225 229 233 228 237 241 236 248
193 187 196 202 200 191 174 193 203 204 203 184 203 242 249 235 240 231 251 256 258 268 275 279 283 282 284 280 274 279 287 288 276 275 276 264 263 251 230 212 207 241 243 227 222 223 229 231 233 237 239 227 233 262
195 196 199 207 194 180 196 200 203 217 232 198 225 239 229 181 235 255 258 270 279 278 278 292 293 311 296 297 296 298 307 302 280 276 278 270 244 218 230 249 233 216 214 221 232 235 230 221 235 229 217 222 236 263
226 203 204 200 186 191 195 199 204 209 231 221 230 231 181 211 229 244 255 273 279 284 276 280 304 319 306 298 300 298 308 303 278 268 275 254 246 224 252 224 203 218 235 243 236 224 218 226 231 224 228 228 254 283
211 212 208 210 191 182 197 230 203 204 198 207 200 183 193 222 232 238 262 269 279 282 274 297 307 306 305 313 309 308 309 280 271 264 272 261 239 225 199 205 221 242 257 237 223 217 220 219 211 207 222 245 264 281
220 213 208 206 204 210 228 207 200 217 227 219 177 191 212 213 237 269 279 286 290 287 280 296 304 306 304 301 306 308 302 273 259 244 238 237 211 202 209 223 236 245 253 223 215 217 211 213 226 244 259 269 275 282
216 216 203 197 195 198 216 226 231 231 236 216 228 238 248 252 264 275 285 282 279 274 282 298 301 304 307 305 302 302 301 277 254 229 227 235 230 225 227 237 247 240 225 212 214 221 229 238 245 251 263 270 274 277
225 215 217 217 207 224 232 223 242 245 244 243 244 254 261 264 266 267 272 276 273 277 288 293 295 298 299 297 296 298 296 287 259 238 241 251 250 241 235 238 232 224 215 211 220 226 233 242 254 265 268 270 260 253
209 190 220 206 230 239 240 244 248 252 252 249 253 246 253 260 265 266 265 269 273 279 287 290 293 291 287 288 294 299 303 301 281 256 252 258 256 230 206 209 225 215 213 218 229 239 250 259 259 259 262 255 248 248
195 198 198 216 241 249 244 231 225 235 240 229 238 227 250 244 247 263 257 265 274 276 285 296 288 286 285 297 314 297 276 228 211 163 138 162 197 194 199 188 191 216 242 264 270 258 252 249 248 247 242 241 245 257
211 208 217 249 232 224 208 200 212 221 210 223 229 219 223 232 252 249 263 254 265 278 272 255 222 203 209 186 134 135 160 149 95 101 141 153 164 180 199 212 220 233 255 263 265 268 266 245 235 240 247 254 265 276
Height
1487 1491 1497 1503 1507 1511 1516 1520 1524 1527 1530 1533 1537 1539 1542 1544 1547 1549 1549 1552 1554 1552 1551 1551 1552 1555 1555 1555 1556 1557 1559 1555 1559 1559 1555 1550 1545 1535 1534 1523 1523 1526 1530 1528 1522 1512 1494 1478 1482 1484 1473 1465 1464 1456
1481 1484 1490 1494 1499 1504 1508 1513 1516 1520 1523 1527 1530 1533 1536 1538 1541 1543 1544 1546 1547 1546 1545 1542 1545 1544 1547 1550 1552 1551 1550 1550 1549 1550 1549 1546 1543 1539 1530 1520 1519 1521 1517 1504 1500 1479 1472 1475 1475 1474 1469 1462 1457 1454
1477 1480 1482 1486 1488 1495 1500 1504 1509 1512 1516 1519 1522 1526 1529 1532 1534 1537 1538 1540 1541 1539 1536 1533 1533 1534 1537 1537 1542 1544 1542 1543 1542 1539 1539 1535 1531 1527 1518 1509 1505 1505 1506 1499 1491 1478 1473 1470 1470 1467 1461 1457 1452 1448
1475 1476 1478 1480 1481 1486 1491 1494 1500 1504 1509 1512 1515 1518 1520 1524 1527 1529 1529 1531 1534 1535 1525 1521 1526 1526 1527 1529 1530 1530 1532 1535 1534 1534 1529 1525 1522 1516 1506 1504 1499 1500 1499 1490 1477 1475 1462 1466 1463 1459 1453 1449 1445 1441
1470 1472 1473 1475 1476 1479 1483 1486 1490 1494 1500 1504 1508 1511 1513 1517 1520 1522 1521 1523 1525 1531 1520 1515 1516 1517 1519 1520 1520 1522 1524 1526 1525 1522 1517 1512 1508 1508 1495 1491 1487 1486 1484 1482 1465 1462 1461 1449 1453 1451 1446 1441 1437 1432
1467 1469 1470 1471 1472 1474 1476 1479 1482 1486 1490 1495 1499 1502 1506 1510 1513 1513 1515 1513 1518 1520 1518 1509 1504 1505 1509 1513 1513 1514 1514 1515 1516 1510 1504 1500 1499 1498 1487 1472 1469 1471 1472 1470 1460 1458 1454 1450 1444 1442 1438 1434 1429 1425
1465 1467 1467 1469 1471 1473 1472 1474 1476 1479 1483 1488 1491 1494 1498 1501 1504 1503 1505 1506 1508 1513 1510 1509 1498 1497 1501 1502 1501 1504 1505 1503 1504 1501 1493 1494 1493 1491 1483 1468 1449 1465 1462 1459 1458 1453 1445 1443 1438 1436 1432 1427 1423 1420
1464 1467 1468 1469 1470 1470 1471 1474 1476 1479 1480 1483 1485 1490 1493 1495 1498 1499 1500 1501 1504 1507 1507 1505 1497 1498 1495 1496 1497 1496 1497 1496 1493 1490 1487 1484 1483 1481 1469 1453 1450 1451 1450 1449 1449 1447 1444 1439 1435 1431 1427 1422 1417 1413
1462 1465 1468 1469 1470 1471 1470 1473 1477 1479 1480 1483 1485 1488 1491 1493 1495 1497 1497 1497 1501 1505 1501 1498 1495 1492 1492 1493 1495 1495 1493 1489 1487 1482 1478 1478 1471 1463 1448 1444 1446 1445 1446 1444 1442 1441 1438 1435 1432 1428 1423 1418 1414 1410
1460 1463 1467 1468 1470 1472 1473 1475 1477 1479 1481 1482 1486 1489 1491 1491 1494 1497 1497 1497 1497 1496 1495 1493 1492 1493 1495 1494 1494 1495 1490 1487 1478 1469 1469 1467 1454 1453 1446 1443 1442 1442 1441 1439 1437 1435 1433 1430 1428 1423 1420 1416 1413 1409
1456 1459 1462 1465 1468 1469 1471 1474 1477 1479 1482 1483 1484 1488 1491 1492 1493 1494 1496 1496 1495 1491 1489 1486 1488 1489 1490 1492 1491 1489 1481 1479 1472 1461 1464 1453 1448 1442 1443 1443 1441 1440 1439 1437 1435 1433 1431 1428 1424 1420 1417 1415 1412 1410
1455 1458 1461 1463 1465 1467 1472 1475 1476 1479 1481 1483 1485 1488 1491 1492 1493 1493 1490 1490 1489 1485 1486 1485 1486 1487 1485 1485 1484 1480 1476 1472 1460 1464 1463 1452 1439 1441 1440 1441 1441 1440 1437 1434 1433 1429 1425 1422 1420 1418 1414 1413 1412 1411
1454 1456 1458 1461 1465 1469 1471 1474 1476 1479 1483 1485 1486 1487 1489 1492 1492 1489 1484 1480 1480 1482 1483 1484 1485 1486 1484 1483 1478 1473 1466 1461 1467 1460 1450 1442 1443 1440 1439 1439 1439 1437 1435 1431 1428 1425 1421 1420 1419 1416 1414 1412 1411 1410
1452 1454 1457 1460 1463 1468 1471 1473 1476 1479 1482 1484 1484 1485 1487 1484 1482 1479 1481 1481 1483 1482 1484 1483 1485 1485 1482 1480 1476 1471 1461 1463 1457 1453 1439 1440 1440 1438 1437 1437 1435 1433 1431 1427 1423 1419 1417 1417 1415 1413 1413 1412 1410 1409
1451 1453 1456 1460 1464 1468 1470 1474 1477 1479 1480 1482 1483 1480 1478 1479 1481 1482 1481 1482 1484 1482 1483 1483 1483 1482 1479 1478 1470 1466 1461 1452 1447 1438 1437 1436 1436 1436 1434 1433 1431 1427 1424 1421 1418 1415 1413 1412 1412 1410 1410 1410 1409 1407
1450 1453 1457 1461 1465 1467 1469 1472 1476 1479 1480 1481 1479 1476 1476 1479 1479 1478 1478 1480 1481 1480 1480 1483 1482 1480 1474 1468 1463 1456 1450 1440 1434 1439 1436 1434 1433 1431 1430 1428 1424 1421 1418 1416 1413 1411 1408 1407 1407 1407 1408 1408 1407 1406
1451 1454 1457 1461 1464 1467 1469 1473 1476 1477 1477 1476 1474 1474 1476 1476 1475 1475 1475 1477 1477 1479 1480 1480 1478 1469 1463 1459 1455 1447 1439 1436 1436 1435 1433 1431 1428 1425 1423 1419 1415 1413 1410 1408 1405 1403 1402 1404 1405 1405 1406 1405 1404 1403
1451 1453 1456 1459 1462 1467 1470 1472 1474 1474 1473 1471 1472 1472 1472 1472 1471 1471 1471 1472 1474 1475 1474 1472 1467 1462 1456 1445 1437 1437 1437 1435 1434 1431 1427 1424 1421 1418 1416 1411 1408 1404 1401 1398 1397 1395 1396 1399 1402 1403 1402 1402 1402 1401
1450 1453 1455 1458 1461 1465 1468 1470 1471 1469 1467 1468 1468 1467 1466 1465 1464 1464 1465 1465 1466 1469 1469 1465 1460 1449 1443 1441 1438 1436 1433 1431 1428 1423 1419 1416 1414 1410 1405 1402 1398 1396 1393 1390 1389 1390 1392 1396 1398 1398 1399 1399 1399 1399
1450 1453 1456 1458 1462 1464 1465 1466 1466 1465 1463 1462 1461 1460 1460 1458 1458 1458 1458 1459 1460 1462 1460 1453 1445 1442 1439 1434 1433 1429 1426 1424 1421 1416 1409 1407 1407 1402 1398 1394 1391 1389 1386 1385 1386 1388 1390 1392 1393 1394 1395 1396 1396 1396
1448 1451 1455 1456 1458 1460 1460 1458 1458 1458 1456 1455 1455 1455 1455 1453 1453 1453 1452 1452 1454 1451 1445 1439 1433 1429 1428 1425 1423 1421 1417 1415 1411 1409 1402 1396 1396 1393 1389 1386 1384 1382 1382 1382 1384 1387 1387 1389 1390 1391 1392 1393 1393 1393
1443 1447 1450 1452 1454 1454 1454 1453 1454 1453 1454 1452 1453 1452 1450 1449 1447 1445 1445 1445 1439 1432 1429 1424 1422 1420 1418 1415 1412 1410 1407 1403 1399 1396 1392 1389 1385 1383 1381 1379 1378 1378 1379 1381 1383 1383 1385 1386 1387 1388 1389 1389 1389 1389
1441 1443 1445 1444 1445 1446 1445 1445 1449 1448 1449 1446 1447 1447 1445 1443 1439 1439 1437 1429 1422 1417 1417 1416 1412 1409 1407 1403 1400 1397 1394 1392 1388 1384 1381 1378 1376 1375 1374 1374 1375 1376 1378 1379 1379 1380 1382 1383 1384 1384 1385 1385 1386 1386
1437 1439 1439 1439 1439 1439 1441 1441 1442 1442 1441 1442 1442 1439 1435 1434 1432 1432 1423 1414 1406 1408 1407 1404 1404 1400 1396 1393 1390 1385 1382 1381 1377 1373 1371 1370 1369 1369 1370 1371 1373 1373 1374 1375 1377 1378 1379 1380 1380 1381 1381 1382 1383 1383
1434 1433 1434 1430 1430 1433 1433 1433 1433 1435 1432 1435 1435 1430 1424 1426 1425 1419 1409 1400 1401 1398 1397 1397 1395 1392 1390 1385 1381 1377 1376 1373 1369 1366 1365 1364 1364 1365 1367 1367 1368 1369 1371 1373 1374 1374 1375 1376 1377 1377 1378 1379 1380 1380
1423 1420 1420 1417 1419 1423 1422 1422 1425 1424 1425 1426 1422 1420 1420 1420 1417 1406 1396 1393 1392 1391 1390 1389 1388 1384 1380 1379 1374 1370 1368 1364 1363 1362 1361 1361 1361 1362 1364 1365 1366 1368 1369 1370 1370 1371 1372 1373 1374 1375 1375 1376 1376 1376
1411 1409 1408 1408 1409 1411 1413 1413 1414 1415 1414 1413 1410 1413 1414 1410 1400 1391 1387 1385 1385 1385 1384 1383 1381 1378 1375 1371 1368 1365 1361 1359 1360 1359 1359 1358 1359 1359 1361 1364 1365 1366 1366 1367 1368 1369 1370 1371 1372 1372 1373 1373 1373 1372
1398 1396 1397 1400 1403 1405 1405 1406 1406 1403 1399 1399 1402 1402 1399 1392 1383 1382 1381 1380 1380 1379 1378 1376 1374 1371 1369 1366 1363 1360 1357 1356 1356 1356 1356 1357 1357 1358 1359 1361 1362 1363 1363 1364 1366 1367 1368 1369 1369 1370 1370 1370 1369 1368
1387 1388 1391 1393 1397 1397 1395 1391 1386 1382 1383 1385 1386 1386 1380 1378 1377 1376 1375 1374 1373 1372 1371 1369 1367 1365 1362 1360 1358 1355 1354 1353 1353 1353 1353 1353 1354 1355 1356 1357 1358 1359 1360 1361 1363 1364 1365 1365 1366 1366 1366 1366 1365 1364
1377 1380 1381 1381 1384 1379 1373 1376 1371 1372 1374 1375 1376 1376 1374 1371 1370 1369 1368 1367 1366 1366 1365 1363 1361 1359 1357 1355 1353 1352 1351 1349 1349 1350 1350 1351 1350 1351 1352 1353 1354 1355 1356 1358 1359 1360 1361 1362 1361 1361 1361 1361 1360 1360
1369 1372 1372 1371 1367 1365 1366 1367 1367 1367 1367 1367 1367 1367 1365 1365 1362 1361 1360 1359 1359 1359 1357 1356 1355 1353 1352 1351 1350 1349 1347 1346 1345 1346 1346 1347 1346 1346 1348 1350 1351 1353 1354 1356 1356 1357 1357 1357 1357 1357 1357 1357 1357 1357
1364 1364 1365 1364 1361 1360 1361 1362 1361 1361 1360 1361 1360 1360 1359 1359 1358 1355 1353 1353 1353 1353 1352 1351 1351 1350 1350 1349 1348 1347 1347 1347 1346 1346 1345 1346 1347 1347 1348 1349 1351 1352 1353 1353 1353 1353 1353 1353 1353 1354 1354 1354 1354 1354
1358 1358 1359 1359 1357 1356 1356 1357 1355 1354 1354 1353 1352 1352 1352 1353 1351 1351 1349 1349 1350 1349 1349 1349 1349 1349 1348 1348 1348 1348 1348 1348 1347 1347 1348 1348 1348 1349 1349 1350 1350 1351 1351 1351 1351 1351 1351 1351 1351 1351 1351 1351 1351 1351